Location: *
(43.0409°N, 0.1694°E)
Time: 17:55:22
(UTC+00:00)

FENGYUN 1C DEB - Pass Details

Date: 19 June 2024
Orbit: 854 x 916 km, 98.8° (Epoch: 11 July)

Event Time Altitude Azimuth Distance (km) Brightness Sun altitude
Rises 21:01:49 0° 226° (SW) 3,498 ? -11.8°
Drops below altitude 10° 21:07:44 10° 274° (W) 2,590 ? -12.5°
Maximum altitude 21:07:47 10° 275° (W) 2,590 ? -12.5°
Sets 21:13:52 0° 323° (NW) 3,554 ? -13.2°
